Weather History for KFFO - April, 2013

Change the Weather History Date:

Monday, April 8, 2013

  Actual Average (KDAY) Record (KDAY)
Temperature  
Mean Temperature 62 °F 49 °F  
Max Temperature 72 °F 59 °F 83 °F (2001)
Min Temperature 52 °F 39 °F 15 °F (1972)
Degree Days  
Heating Degree Days 4 16  
Month to date heating degree days 140  
Since 1 July heating degree days 5179  
Cooling Degree Days 0 0  
Month to date cooling degree days 0  
Year to date cooling degree days 0  
Growing Degree Days 12 (Base 50)    
Moisture  
Dew Point 52 °F    
Average Humidity 69    
Maximum Humidity 92    
Minimum Humidity 52    
Precipitation  
Precipitation 0.00 in 0.13 in 0.95 in (1921)
Month to date precipitation 1.02  
Year to date precipitation 9.31  
Snow  
Snow 0.00 in 0.00 in 4.70 in (1974)
Month to date snowfall 0.3  
Since 1 July snowfall 23.0  
Snow Depth -    
Sea Level Pressure  
Sea Level Pressure 29.93 in    
Wind  
Wind Speed 9 mph (South)    
Max Wind Speed 23 mph    
Max Gust Speed 32 mph    
Visibility 10 miles    
Events Rain    
T = Trace of Precipitation, MM = Missing Value Source: NWS Daily Summary

Daily Weather History Graph

Daily Weather History Graph

Search for Another Location

Airport or City:

Trip Planner

Search our weather history database for the weather conditions in past years. The results will help you decide how hot, cold, wet, or windy it might be!

Date:

Astronomy

Apr. 08, 2013 Rise Set
Actual Time 7:08 AM EDT 8:07 PM EDT
Civil Twilight 6:41 AM EDT 8:35 PM EDT
Nautical Twilight 6:08 AM EDT 9:08 PM EDT
Astronomical Twilight 5:34 AM EDT 9:42 PM EDT
Moon 5:58 AM EDT (4/8) 6:41 PM EDT (4/8)
Length of Visible Light 13h 53m
Length of Day
12h 58m
Waning Crescent, 3% of the Moon is Illuminated
Apr 8
Waning Crescent
Apr 10
New
Apr 18
First Quarter
Apr 25
Full
May 2
Last Quarter

Hourly Weather History & Observations

Time (EDT) Temp. Dew Point Humidity Pressure Visibility Wind Dir Wind Speed Gust Speed Precip Events Conditions
12:55 AM 58.6 °F 50.2 °F 73% 29.99 in 10.0 mi South 3.5 mph - N/A   Mostly Cloudy
1:55 AM 58.5 °F 51.8 °F 79% 29.99 in 10.0 mi South 11.5 mph - N/A   Overcast
2:55 AM 56.1 °F 50.4 °F 81% 29.98 in 10.0 mi South 5.8 mph - N/A   Mostly Cloudy
3:55 AM 55.9 °F 50.2 °F 81% 29.96 in 10.0 mi SE 4.6 mph - N/A   Overcast
4:55 AM 52.3 °F 49.6 °F 91% 29.95 in 10.0 mi Calm Calm - N/A   Scattered Clouds
5:55 AM 54.0 °F 51.4 °F 91% 29.94 in 10.0 mi SSE 3.5 mph - N/A   Mostly Cloudy
6:55 AM 53.2 °F 51.1 °F 92% 29.94 in 10.0 mi Calm Calm - N/A   Mostly Cloudy
7:55 AM 54.3 °F 50.4 °F 86% 29.95 in 10.0 mi Calm Calm - N/A   Mostly Cloudy
8:55 AM 57.6 °F 49.5 °F 74% 29.96 in 10.0 mi South 6.9 mph - N/A   Mostly Cloudy
9:55 AM 59.7 °F 48.6 °F 67% 29.94 in 10.0 mi South 9.2 mph - N/A   Overcast
10:55 AM 61.9 °F 48.2 °F 61% 29.92 in 10.0 mi SSE 13.8 mph - N/A   Overcast
11:55 AM 66.6 °F 49.5 °F 54% 29.91 in 10.0 mi South 15.0 mph - N/A   Overcast
12:55 PM 66.7 °F 50.9 °F 57% 29.91 in 10.0 mi South 17.3 mph - N/A   Overcast
1:51 PM 66.2 °F 51.8 °F 60% 29.89 in 10.0 mi South 13.8 mph - N/A Rain Light Rain
1:55 PM 66.4 °F 53.1 °F 62% 29.89 in 10.0 mi South 15.0 mph - 0.00 in   Overcast
2:06 PM 66.2 °F 51.8 °F 60% 29.89 in 10.0 mi South 19.6 mph 27.6 mph N/A Rain Light Rain
2:55 PM 70.7 °F 52.5 °F 52% 29.88 in 10.0 mi SSW 21.9 mph 31.1 mph 0.00 in   Overcast
3:55 PM 71.2 °F 53.2 °F 53% 29.87 in 10.0 mi SSW 20.7 mph 28.8 mph N/A   Overcast
4:55 PM 70.9 °F 53.1 °F 53% 29.87 in 10.0 mi SSW 20.7 mph 32.2 mph N/A   Overcast
5:55 PM 71.4 °F 54.0 °F 54% 29.88 in 10.0 mi SSW 23.0 mph - N/A   Mostly Cloudy
6:55 PM 71.4 °F 53.6 °F 53% 29.89 in 10.0 mi SSW 18.4 mph 24.2 mph N/A   Mostly Cloudy
7:55 PM 68.5 °F 52.9 °F 57% 29.91 in 10.0 mi SSW 15.0 mph - N/A   Mostly Cloudy
8:55 PM 66.0 °F 53.4 °F 64% 29.93 in 10.0 mi SSW 11.5 mph - N/A   Mostly Cloudy
9:55 PM 63.9 °F 53.6 °F 69% 29.95 in 10.0 mi SSW 10.4 mph - N/A   Scattered Clouds
10:55 PM 61.0 °F 53.2 °F 76% 29.98 in 10.0 mi SSW 9.2 mph - N/A   Scattered Clouds
11:55 PM 57.4 °F 52.0 °F 82% 29.99 in 10.0 mi South 9.2 mph - N/A   Mostly Cloudy